Location: Ammerl�gen
(47.2167°N, 9.6000°E)
Time: 04:30:22
(UTC+00:00)

NOAA 19 - Pass Details

Date: 04 December 2021
Orbit: 841 x 860 km, 99.2° (Epoch: 16 January)

Event Time Altitude Azimuth Distance (km) Brightness Sun altitude
Rises 05:23:37 0° 34° (NE) 3,431 8.6 -14.2°
Reaches altitude 10° 05:27:56 10° 66° (ENE) 2,492 8.4 -13.5°
Maximum altitude 05:29:46 12° 86° (E) 2,378 8.7 -13.2°
Drops below altitude 10° 05:31:36 10° 106° (ESE) 2,490 9.2 -12.9°
Sets 05:35:53 0° 138° (SE) 3,422 9.5 -12.2°
